Regional Weather Roundup
Issued by NWS Spokane, WA

Home | Current Version | Previous Version | Text Only | Print | Product List | Glossary On
Versions: 1 2 3 4 5 6 7 8 9 10 11 12 13 14 15 16 17 18 19 20 21 22 23 24 25 26 27 28 29 30 31 32 33 34 35 36 37 38 39 40 41 42 43 44 45 46 47 48 49 50
988
NZUS01 KOTX 040600
RWROTX
EASTERN WASHINGTON/NORTHERN IDAHO ROUNDUP
NATIONAL WEATHER SERVICE, SPOKANE WA
1100 PM PDT TUE MAY 03 2016

Note: "fair" indicated few or no clouds below 12,000 feet with no
significant weather and/or obstructions to visibility.

...NORTHEAST WASHINGTON AND NORTHERN IDAHO PANHANDLE...

CITY           SKY/WX    TMP DP  RH WIND       PRES   REMARKS
SPOKANE INTL   PTCLDY    61  40  45 CALM      29.95F
SPOKANE DOWNTO PTCLDY    57  44  62 CALM      29.95S
COEUR D ALENE  PTCLDY    57  46  67 CALM      29.94S
DEER PARK      PTCLDY    53  42  66 CALM      29.95S

...SOUTHEAST WASHINGTON AND SOUTHERN IDAHO PANHANDLE...

CITY           SKY/WX    TMP DP  RH WIND       PRES   REMARKS
WALLA WALLA    LGT RAIN  70  43  37 S16G25    29.96R
PULLMAN/MOSCOW CLEAR     59  43  55 S3        29.98F
LOWELL           N/A     55  50  83 N3        30.00R

...COLUMBIA BASIN...

CITY           SKY/WX    TMP DP  RH WIND       PRES   REMARKS
EPHRATA        CLOUDY    69  44  40 NW22G28   29.91R
MOSES LAKE     CLOUDY    68  45  43 NW5       29.93R
TRI CITIES     CLOUDY    72  48  42 W15       29.91R
HERMISTON      CLOUDY    68  46  45 W7        29.95R
PENDLETON      MOCLDY    67  42  40 W17       29.98R

...EAST SLOPES CASCADES...

CITY           SKY/WX    TMP DP  RH WIND       PRES   REMARKS
THE DALLES     CLOUDY    65  50  58 NW8       29.98S
YAKIMA         LGT RAIN  66  49  54 CALM      29.99R
ELLENSBURG     CLOUDY    61  51  70 W10       30.02R
STAMPEDE PASS  LGT RAIN  48  45  89 SW6       30.08F
WENATCHEE      CLOUDY    64  48  56 NW20      29.95F
OMAK           MOCLDY    63  42  46 CALM      29.91F

...SOUTHERN BRITISH COLUMBIA...

CITY           SKY/WX    TMP DP  RH WIND       PRES   REMARKS

...WESTERN MONTANA...

CITY           SKY/WX    TMP DP  RH WIND       PRES   REMARKS
MISSOULA       CLEAR     54  38  54 N6        30.02R

...NEIGHBORING CITIES...

CITY           SKY/WX    TMP DP  RH WIND       PRES   REMARKS
SEATTLE        CLOUDY    59  48  67 N9        30.10R



USA.gov is the U.S. government's official web portal to all federal, state and local government web resources and services.